Location: Newark
(60.6561°N, 46.5772°E)
Time: 21:04:27
(UTC+00:00)

Transit 4A - All Passes

Search period start: 15 October 2019 00:00
Search period end: 25 October 2019 00:00
Orbit: 866 x 978 km, 66.8° (Epoch: 14 October)

Date Brightness Start Highest point End Pass type
(mag) Time Alt. Az. Time Alt. Az. Time Alt. Az.
15 Oct - 01:41:17 10° SE 01:44:54 16° ESE 01:48:30 10° ENE visible
15 Oct - 03:23:59 10° SSW 03:30:03 51° SE 03:36:01 10° NE daylight
15 Oct - 05:10:05 10° WSW 05:16:23 71° NNW 05:22:32 10° NE daylight
15 Oct - 06:57:29 10° W 07:03:32 49° N 07:09:25 10° ENE daylight
15 Oct - 08:44:41 10° WNW 08:50:48 60° NNE 08:56:45 10° ESE daylight
15 Oct - 10:31:19 10° NW 10:37:25 67° SW 10:43:17 10° SE daylight
15 Oct - 12:18:21 10° WNW 12:22:50 22° WSW 12:27:13 10° SSW daylight
16 Oct - 01:49:20 10° SSE 01:53:53 21° ESE 01:58:22 10° ENE visible
16 Oct - 03:33:05 10° SSW 03:39:18 63° SE 03:45:24 10° NE daylight
16 Oct - 05:19:36 10° WSW 05:25:51 63° NNW 05:31:57 10° ENE daylight
16 Oct - 07:07:04 10° WNW 07:13:06 48° N 07:18:58 10° ENE daylight
16 Oct - 08:54:08 10° NW 09:00:17 67° NNE 09:06:15 10° ESE daylight
16 Oct - 10:40:44 10° NW 10:46:40 54° SW 10:52:24 10° SSE daylight
16 Oct - 12:28:12 10° WNW 12:31:48 17° WSW 12:35:21 10° SW daylight
17 Oct - 01:57:46 10° S 02:02:56 27° ESE 02:08:02 10° ENE visible
17 Oct - 03:42:18 10° SW 03:48:37 77° SE 03:54:47 10° NE daylight
17 Oct - 05:29:11 10° W 05:35:21 56° NNW 05:41:23 10° ENE daylight
17 Oct - 07:16:38 10° WNW 07:22:40 49° N 07:28:31 10° E daylight
17 Oct - 09:03:33 10° NW 09:09:44 77° NNE 09:15:43 10° ESE daylight
17 Oct - 10:50:10 10° NW 10:55:52 43° WSW 11:01:23 10° SSE daylight
17 Oct - 12:38:33 10° W 12:40:43 12° W 12:42:51 10° WSW daylight
18 Oct - 02:06:25 10° S 02:12:01 35° ESE 02:17:33 10° ENE visible
18 Oct - 03:51:38 10° SW 03:57:58 90° NW 04:04:09 10° NE daylight
18 Oct - 05:38:46 10° W 05:44:53 52° NNW 05:50:51 10° ENE daylight
18 Oct - 07:26:10 10° WNW 07:32:13 52° NNE 07:38:05 10° E daylight
18 Oct - 09:12:57 10° NW 09:19:08 90° NE 09:25:06 10° SE daylight
18 Oct - 10:59:39 10° WNW 11:05:00 33° WSW 11:10:12 10° S daylight
19 Oct - 00:33:29 10° SE 00:36:13 13° ESE 00:38:56 10° ENE visible
19 Oct - 02:15:16 10° SSW 02:21:11 44° SE 02:27:00 10° NE visible
19 Oct - 04:01:03 10° WSW 04:07:22 77° NNW 04:13:32 10° NE daylight
19 Oct - 05:48:23 10° W 05:54:27 49° N 06:00:20 10° ENE daylight
19 Oct - 07:35:40 10° WNW 07:41:45 56° NNE 07:47:39 10° E daylight
19 Oct - 09:22:21 10° NW 09:28:28 76° SW 09:34:24 10° SE daylight
19 Oct - 11:09:12 10° WNW 11:14:05 26° WSW 11:18:50 10° SSW daylight
20 Oct - 00:41:10 10° SE 00:45:10 18° ESE 00:49:06 10° ENE visible
20 Oct - 02:24:16 10° SSW 02:30:24 55° SE 02:36:24 10° NE visible
20 Oct - 04:10:33 10° WSW 04:16:49 68° NNW 04:22:56 10° NE daylight
20 Oct - 05:57:59 10° WNW 06:04:00 48° N 06:09:52 10° ENE daylight
20 Oct - 07:45:07 10° WNW 07:51:15 62° NNE 07:57:11 10° ESE daylight
20 Oct - 09:31:45 10° NW 09:37:46 62° SW 09:43:35 10° SSE daylight
20 Oct - 11:18:54 10° WNW 11:23:05 20° WSW 11:27:12 10° SSW daylight
21 Oct - 00:49:22 10° SSE 00:54:09 23° ESE 00:58:52 10° ENE visible
21 Oct - 02:33:25 10° SW 02:39:41 68° SE 02:45:47 10° NE visible
21 Oct - 04:20:05 10° WSW 04:26:18 60° NNW 04:32:20 10° ENE daylight
21 Oct - 06:07:34 10° WNW 06:13:34 48° N 06:19:24 10° ENE daylight
21 Oct - 07:54:33 10° NW 08:00:42 70° NNE 08:06:40 10° ESE daylight
21 Oct - 09:41:09 10° NW 09:47:00 49° SW 09:52:39 10° SSE daylight
21 Oct - 11:28:53 10° WNW 11:32:02 15° WSW 11:35:10 10° SW daylight
22 Oct - 00:57:53 10° S 01:03:13 30° ESE 01:08:28 10° ENE visible
22 Oct - 02:42:41 10° SW 02:49:00 82° SE 02:55:10 10° NE visible
22 Oct - 04:29:40 10° W 04:35:49 55° NNW 04:41:47 10° ENE daylight
22 Oct - 06:17:06 10° WNW 06:23:07 50° N 06:28:58 10° E daylight
22 Oct - 08:03:58 10° NW 08:10:08 81° NE 08:16:06 10° ESE daylight
22 Oct - 09:50:37 10° NW 09:56:10 39° WSW 10:01:34 10° S daylight
22 Oct - 11:39:51 10° W 11:40:55 10° W 11:41:59 10° WSW daylight
22 Oct - 23:26:27 10° ESE 23:27:34 10° E 23:28:41 10° E visible
23 Oct - 01:06:37 10° S 01:12:21 38° ESE 01:17:58 10° NE visible
23 Oct - 02:52:03 10° SW 02:58:23 85° NW 03:04:32 10° NE visible
23 Oct - 04:39:16 10° W 04:45:21 51° NNW 04:51:16 10° ENE daylight
23 Oct - 06:26:38 10° WNW 06:32:41 53° NNE 06:38:32 10° E daylight
23 Oct - 08:13:22 10° NW 08:19:31 85° SW 08:25:27 10° SE daylight
23 Oct - 10:00:07 10° WNW 10:05:17 30° WSW 10:10:20 10° S daylight
23 Oct - 23:33:12 10° SE 23:36:28 15° ESE 23:39:41 10° ENE visible
24 Oct - 01:15:32 10° SSW 01:21:32 48° SE 01:27:24 10° NE visible
24 Oct - 03:01:30 10° WSW 03:07:48 73° NNW 03:13:56 10° NE visible
24 Oct - 04:48:52 10° W 04:54:54 49° N 05:00:46 10° ENE daylight
24 Oct - 06:36:07 10° WNW 06:42:11 58° NNE 06:48:05 10° E daylight
24 Oct - 08:22:46 10° NW 08:28:50 71° SW 08:34:43 10° SE daylight
24 Oct - 10:09:43 10° WNW 10:14:21 23° WSW 10:18:52 10° SSW daylight
24 Oct - 23:41:07 10° SSE 23:45:25 20° ESE 23:49:40 10° ENE visible
